Regional Weather Roundup
Issued by NWS

Home | Current Version | Previous Version | Graphics & Text | Print | Product List | Glossary On
Versions: 1 2 3 4 5 6 7 8 9 10 11 12 13 14 15 16 17 18 19 20 21 22 23 24 25 26 27 28 29 30 31 32 33 34 35 36 37 38 39 40 41 42 43 44 45 46 47 48 49 50
321
ASUS43 KOAX 061202
RWRNE

WEATHER ROUNDUP FOR NEBRASKA
NATIONAL WEATHER SERVICE OMAHA NE
700 AM CDT FRI MAY 06 2016

NOTES: SATELLITE DATA IS BEING USED TO AUGMENT CLOUD COVER ABOVE
       12000 FEET.
       "FAIR" INDICATES FEW OR NO CLOUDS BELOW 12,000 FEET WITH NO
       SIGNIFICANT WEATHER AND/OR OBSTRUCTIONS TO VISIBILITY.

  * THESE STATIONS DO NOT REPORT WEATHER SUCH AS RAIN...SNOW OR FOG.

NEZ001>004-019>022-054>056-061300-
NEBRASKA PANHANDLE

CITY           SKY/WX    TMP DP  RH WIND       PRES   REMARKS
SCOTTSBLUFF    CLOUDY    54  44  69 E9        29.93S
6HR MIN TEMP:  54; 6HR MAX TEMP:  68;

ALLIANCE       CLOUDY    46  43  89 SE9       29.94S
6HR MIN TEMP:  45; 6HR MAX TEMP:  58;

CHADRON        CLEAR     48  44  86 N3        29.89R
6HR MIN TEMP:  48; 6HR MAX TEMP:  65;

KIMBALL        CLOUDY    47  42  81 S7        29.97F
SIDNEY         CLOUDY    52  45  77 S10       29.96S
6HR MIN TEMP:  50; 6HR MAX TEMP:  60;

$$

NEZ057>060-069>072-079>082-061300-
SOUTHWEST NEBRASKA

CITY           SKY/WX    TMP DP  RH WIND       PRES   REMARKS
NORTH PLATTE   CLOUDY    56  45  66 VRB5      29.97R
6HR MIN TEMP:  55; 6HR MAX TEMP:  62;

IMPERIAL       PTCLDY    54  45  71 SE5       29.98R
6HR MIN TEMP:  53; 6HR MAX TEMP:  61;

MCCOOK         PTCLDY    53  45  74 SE6       29.99R
6HR MIN TEMP:  53; 6HR MAX TEMP:  62;

$$

NEZ005>010-023>029-035>040-094-061300-
NORTH CENTRAL NEBRASKA

CITY           SKY/WX    TMP DP  RH WIND       PRES   REMARKS
VALENTINE      CLEAR     58  47  66 W5        29.92R
6HR MIN TEMP:  58; 6HR MAX TEMP:  66;

AINSWORTH      CLEAR     57  46  67 S14       29.92S
BROKEN BOW     CLEAR     54  45  71 S7        29.98R
6HR MIN TEMP:  52; 6HR MAX TEMP:  62; 6HR PCP: TRACE;

$$

NEZ041-046>049-061>064-073>077-083>087-061300-
SOUTH CENTRAL NEBRASKA

CITY           SKY/WX    TMP DP  RH WIND       PRES   REMARKS
AURORA         CLEAR     53  43  69 SW10      30.00S
KEARNEY *      CLEAR     54  43  66 SW10      30.00S
YORK           CLEAR     50  43  76 S7        30.01S
$$

NEZ011>018-030>034-042>045-061300-
NORTHEAST NEBRASKA

CITY           SKY/WX    TMP DP  RH WIND       PRES   REMARKS
NORFOLK        CLEAR     57  43  59 S14       29.96S
6HR MIN TEMP:  56; 6HR MAX TEMP:  62;

ALBION         CLEAR     54  43  65 S5        29.98S
BLAIR          CLEAR     54  44  68 S7        30.00R
COLUMBUS *     CLEAR     55  39  54 W3        30.00S
FREMONT        CLEAR     57  44  59 CALM      30.00S
$$

NEZ050>053-065>068-078-088>093-061300-
SOUTHEAST NEBRASKA

CITY           SKY/WX    TMP DP  RH WIND       PRES   REMARKS
BEATRICE       CLEAR     48  44  84 CALM      30.03S
FALLS CITY     CLEAR     51  43  74 CALM      30.03R
6HR MIN TEMP:  50; 6HR MAX TEMP:  58;

$$

NEZ044-045-051>053-067-061300-
OMAHA AREA

CITY           SKY/WX    TMP DP  RH WIND       PRES   REMARKS
BLAIR          CLEAR     54  44  68 S7        30.00R
FREMONT        CLEAR     57  44  59 CALM      30.00S
$$




USA.gov is the U.S. government's official web portal to all federal, state and local government web resources and services.